POERUNWV Weather Reports


time (UTC)temp
F
wind
direction
speed
knots
gust
knots
rain 1hr
in
rain 24hr
in
rain mn
in
humidity
%
barometer
mb
20260508053036 39 0 0.0 0.0 0.00 0.05 0.00 71 1014.7
20260508051541 39 0 0.0 0.0 0.00 0.05 0.00 71 1014.7
20260508050036 39 0 0.0 0.0 0.00 0.05 0.00 71 1014.8
20260508044538 40 0 0.0 0.9 0.00 0.06 0.00 71 1014.8
20260508043036 40 0 0.0 0.9 0.00 0.06 0.00 69 1014.7
20260508041535 41 0 0.0 0.9 0.00 0.06 0.00 68 1014.6
20260508040047 41 0 0.0 0.9 0.00 0.06 0.00 67 1014.5
20260508034544 42 0 0.0 0.9 0.00 0.08 0.06 66 1014.2
20260508033034 42 0 0.0 0.9 0.00 0.08 0.06 65 1014.0
20260508031541 42 0 0.0 0.9 0.00 0.08 0.06 67 1013.8
20260508030035 43 0 0.0 0.9 0.00 0.08 0.06 66 1013.8
20260508024558 43 0 0.0 1.7 0.00 0.11 0.06 67 1013.6
20260508023038 44 0 0.0 1.7 0.00 0.11 0.06 64 1013.5
20260508021537 45 0 0.0 0.9 0.00 0.11 0.06 66 1013.4
20260508020046 45 0 0.0 1.7 0.00 0.11 0.06 63 1013.3
20260508014538 46 311 0.0 2.6 0.00 0.13 0.06 63 1013.1
20260508013036 47 0 0.0 1.7 0.00 0.13 0.06 62 1013.0
20260508011535 47 0 0.0 3.5 0.00 0.13 0.06 60 1012.7
20260508010047 47 304 0.9 2.6 0.00 0.13 0.06 58 1012.6
20260508004543 48 0 0.0 2.6 0.00 0.13 0.06 60 1012.4
20260508003035 48 308 0.9 2.6 0.00 0.13 0.06 58 1012.3
20260508001543 49 359 0.0 2.6 0.00 0.13 0.06 59 1012.2
20260508000034 50 350 0.0 1.7 0.00 0.13 0.06 61 1012.1
20260507234533 51 332 0.0 2.6 0.00 0.15 0.06 55 1011.8
20260507233036 51 320 0.9 4.3 0.00 0.15 0.06 54 1011.9
20260507231536 52 296 0.9 2.6 0.00 0.15 0.06 53 1011.6
20260507230038 52 318 0.9 2.6 0.00 0.15 0.06 52 1011.4
20260507224536 53 355 0.9 7.0 0.00 0.18 0.06 56 1011.4
20260507223035 53 299 0.9 6.1 0.00 0.18 0.06 54 1011.4
20260507221541 54 352 1.7 5.2 0.00 0.18 0.06 56 1011.1
20260507220035 54 280 1.7 5.2 0.00 0.18 0.06 51 1011.1
20260507214537 54 300 0.9 7.0 0.00 0.20 0.06 52 1010.8
20260507213037 54 329 2.6 7.0 0.00 0.20 0.06 53 1010.8
20260507211534 53 316 0.9 2.6 0.00 0.20 0.06 52 1010.6
20260507210040 53 333 1.7 4.3 0.00 0.20 0.06 54 1010.4
20260507204535 53 355 1.7 7.8 0.00 0.22 0.06 52 1010.3
20260507203104 53 311 0.9 3.5 0.00 0.22 0.06 56 1010.4
20260507201535 53 321 1.7 4.3 0.00 0.22 0.06 55 1010.6
20260507200035 54 356 1.7 4.3 0.00 0.22 0.06 54 1010.7
20260507194535 53 330 1.7 3.5 0.00 0.23 0.06 57 1011.1
20260507193039 53 315 0.9 5.2 0.00 0.23 0.06 58 1011.1
20260507191538 53 323 2.6 7.0 0.00 0.23 0.06 57 1011.1
20260507190034 54 49 3.5 8.7 0.00 0.23 0.06 55 1010.9
20260507184535 52 4 1.7 3.5 0.00 0.25 0.06 58 1011.1
20260507183036 53 320 1.7 4.3 0.00 0.25 0.06 61 1011.1
20260507181535 55 328 1.7 5.2 0.00 0.25 0.06 57 1011.1
20260507180039 55 12 1.7 7.8 0.00 0.25 0.06 62 1011.2
20260507174542 53 45 1.7 5.2 0.00 0.27 0.06 60 1011.5
20260507173053 53 309 1.7 4.3 0.00 0.27 0.06 62 1011.5
20260507171541 53 2 2.6 7.8 0.00 0.27 0.06 63 1011.6
20260507170039 51 327 2.6 7.0 0.00 0.27 0.06 65 1011.9
20260507164536 51 334 0.9 5.2 0.00 0.29 0.06 65 1012.1
20260507163039 51 64 1.7 5.2 0.00 0.29 0.06 69 1012.3
20260507161543 50 336 0.9 5.2 0.00 0.29 0.06 73 1012.4
20260507160038 49 318 0.0 4.3 0.00 0.29 0.06 74 1012.5
20260507154535 49 319 1.7 7.0 0.00 0.29 0.06 76 1012.5
20260507153035 48 332 0.9 2.6 0.00 0.29 0.06 78 1012.5
20260507151536 47 359 1.7 3.5 0.00 0.29 0.06 82 1012.4
20260507150040 47 0 0.0 1.7 0.00 0.29 0.06 82 1012.5
20260507144536 46 0 0.9 2.6 0.00 0.30 0.06 85 1012.8
20260507143045 45 356 0.0 1.7 0.00 0.30 0.06 87 1013.1
20260507141547 45 331 0.9 2.6 0.00 0.30 0.06 87 1013.4
20260507140035 45 350 0.0 1.7 0.00 0.30 0.06 91 1013.5
20260507134535 44 0 0.0 1.7 0.00 0.31 0.06 94 1013.5
20260507133104 44 0 0.0 3.5 0.00 0.31 0.06 94 1013.7
20260507131540 44 0 0.0 1.7 0.00 0.31 0.06 96 1013.8
20260507130038 43 9 0.0 1.7 0.00 0.31 0.06 96 1013.8
20260507124534 43 0 0.0 2.6 0.00 0.36 0.06 97 1013.8
20260507123040 42 0 0.0 2.6 0.00 0.36 0.06 97 1013.9
20260507121535 42 350 0.0 1.7 0.00 0.36 0.06 96 1013.8
20260507120037 42 174 0.0 1.7 0.00 0.36 0.06 97 1013.8
20260507114539 42 0 0.0 0.0 0.00 0.49 0.06 97 1013.7
20260507113037 42 0 0.0 0.0 0.00 0.49 0.06 97 1013.5
20260507111536 42 0 0.0 0.0 0.00 0.49 0.06 97 1013.3
20260507110041 42 0 0.0 0.0 0.00 0.49 0.06 97 1012.9
20260507104536 42 0 0.0 0.9 0.00 0.65 0.06 97 1012.9
20260507103043 42 0 0.0 0.9 0.01 0.65 0.06 97 1012.9
20260507101540 42 0 0.0 0.9 0.01 0.65 0.06 97 1012.6
20260507100038 43 353 0.0 0.9 0.01 0.65 0.06 97 1012.8
20260507094544 43 0 0.0 0.9 0.01 0.75 0.06 97 1012.4
20260507093038 43 0 0.0 1.7 0.01 0.74 0.05 97 1012.2
20260507091535 43 0 0.0 1.7 0.02 0.74 0.05 97 1012.5
20260507090037 43 314 0.9 2.6 0.02 0.74 0.05 96 1012.5
20260507084539 44 319 0.9 1.7 0.03 0.75 0.05 97 1012.3
20260507083036 44 0 0.0 0.9 0.02 0.74 0.04 97 1012.3
20260507081539 44 0 0.0 0.9 0.01 0.73 0.03 97 1012.6
20260507080035 44 0 0.0 0.9 0.01 0.73 0.03 97 1012.5
20260507074534 44 0 0.0 0.9 0.00 0.72 0.02 97 1012.4
20260507073038 44 0 0.0 0.0 0.00 0.72 0.02 97 1012.5
20260507071536 44 0 0.0 0.0 0.00 0.72 0.02 97 1012.5
20260507070044 44 0 0.0 0.0 0.00 0.72 0.02 97 1012.4
20260507064543 44 0 0.0 0.0 0.00 0.72 0.02 97 1012.5
20260507063037 44 0 0.0 0.0 0.00 0.72 0.02 97 1012.4
20260507061538 44 0 0.0 0.0 0.01 0.72 0.02 97 1012.7
20260507060036 44 0 0.0 0.0 0.01 0.72 0.02 96 1012.9
20260507054534 44 0 0.0 0.0 0.01 0.72 0.02 96 1013.2